[[{"header":{"parameterUnit":"m.s-1","parameterCategory":1,"la1":30.2991,"la2":30.254,"lo1":-89.0895,"lo2":-89.0444,"dy":0.0017,"dx":0.0017,"nx":28,"ny":28,"refTime":"2024-09-27T21:00:00:Z","depth":0,"parameterNumber":2,"parameterNumberName":"U-component_of_WINDS"},"data":[0,0,0,0,0,0,0,0,0,0,0,0,0,0,0,0,0,0,0,0,0,0,0,0,0,0,0,0,0,0,0,0,0,0,0,0,0,0,0,0,0,0,0,0,0,0,0,0,0,0,0,0,0,0,0,0,0,0,4.7248,4.7248,0,4.7311,4.7312,4.7313,4.7305,4.7304,4.7303,4.7302,4.7369,4.7371,4.7374,0,0,0,0,0,0,0,0,0,0,0,0,0,4.7122,4.7124,4.7248,4.7249,4.7249,4.7311,4.7312,4.7313,4.7306,4.7304,4.7303,4.7302,4.7368,4.7371,4.7374,0,0,0,0,0,0,0,0,0,0,0,0,0,4.718,4.7125,4.7248,4.7253,4.7254,4.7311,4.7312,4.7313,4.7306,4.7304,4.7303,4.7301,4.7367,4.7371,4.7375,4.743,0,0,4.7387,4.7389,0,0,0,0,0,0,0,0,4.7177,4.7185,4.7251,4.7253,4.7254,4.7299,4.7292,4.7353,4.7306,4.7286,4.7302,4.7301,4.7347,4.7352,4.7368,4.7433,4.7436,4.7387,4.739,4.7392,4.7393,0,0,0,0,0,0,0,4.7173,4.7182,4.7273,4.7252,4.7254,4.7253,4.726,4.7303,4.7324,4.7288,4.7287,4.7295,4.7347,4.7364,4.7369,4.7437,4.7387,4.7391,4.7393,4.7395,4.7553,4.7555,0,0,0,0,0,0,4.7167,4.7179,4.7271,4.7275,4.7211,4.7256,4.7264,4.7286,4.7324,4.7328,4.7296,4.7294,4.7357,4.7364,4.7371,4.7439,4.7391,4.7395,4.7398,4.7552,4.7554,4.7556,0,0,0,0,0,0,4.7164,4.7175,4.7268,4.7227,4.7238,4.726,4.7285,4.7288,4.7305,4.733,4.7334,4.7309,4.7357,4.7366,4.7416,4.7441,4.7397,4.7401,4.7549,4.7552,4.7555,4.7575,0,0,0,0,0,0,4.7161,4.7174,4.7195,4.7227,4.7241,4.7311,4.7287,4.729,4.7312,4.731,4.7343,4.7347,4.7356,4.741,4.742,4.7446,4.7404,4.7547,4.7551,4.7554,4.7572,4.7578,4.7584,0,0,0,0,0,4.7156,4.7199,4.7196,4.7207,4.7267,4.7312,4.732,4.7329,4.7314,4.7335,4.7352,4.7346,4.7437,4.7415,4.7426,4.7454,4.7546,4.755,4.7554,4.757,4.7577,4.7583,0,0,0,0,0,0,4.7169,4.7203,4.7201,4.7254,4.7281,4.7311,4.7338,4.7336,4.7368,4.7365,4.7375,4.7382,4.7433,4.7449,4.7423,4.7511,4.749,4.7496,4.7498,4.7505,4.7511,4.7505,4.7407,0,0,0,0,0,4.7178,4.7212,4.724,4.7284,4.7298,4.7316,4.7336,4.7341,4.7368,4.738,4.74,4.7427,4.7462,4.7485,4.7518,4.7576,4.7583,4.7601,4.7606,4.761,4.7615,4.7647,4.7656,4.7569,4.7569,4.7568,0,0,4.7197,4.722,4.724,4.7288,4.7308,4.7344,4.7325,4.7363,4.7389,4.7385,4.7434,4.745,4.7482,4.7536,4.756,4.755,4.7642,4.7616,4.7619,4.7621,4.7652,4.7661,4.7668,4.7571,4.7571,4.757,0,0,4.7249,4.7269,4.7309,4.7331,4.7363,4.7375,4.7385,4.7416,4.7427,4.7475,4.7474,4.7506,4.7566,4.7588,4.7608,4.7671,4.7667,4.7682,4.771,4.7741,4.7748,4.7754,4.7776,4.7784,4.7687,4.7687,4.7687,0,4.7268,4.732,4.733,4.7368,4.7389,4.7388,4.7429,4.745,4.7491,4.7506,4.7494,4.757,4.7591,4.7651,4.7666,4.7682,4.7694,4.7677,4.7746,4.7752,4.7758,4.7779,4.7788,4.7688,4.7688,4.7688,4.7688,0,4.7343,4.7379,4.7408,4.7448,4.7472,4.7512,4.7528,4.7552,4.7555,4.7569,4.7619,4.7645,4.7684,4.7699,4.7703,4.776,4.7752,4.7743,4.7722,4.7768,4.7788,4.7796,4.7691,4.769,4.769,4.7689,0,0,4.7402,4.7448,4.7458,4.7477,4.7513,4.7542,4.7582,4.762,4.7641,4.767,4.7704,4.7756,4.7748,4.777,4.7777,4.7804,4.7853,4.7792,4.7793,4.7802,4.7917,4.7923,4.7932,4.7851,4.7853,4.7854,4.7915,0,4.7457,4.7527,4.7538,4.76,4.7634,4.7634,4.7669,4.7696,4.771,4.7742,4.7759,4.7795,4.7782,4.7795,4.7823,4.7841,4.7876,4.7837,4.7883,4.7885,4.7874,4.7943,4.7949,4.8004,4.7923,4.7924,4.7925,0,4.753,4.7561,4.7627,4.7659,4.7674,4.7705,4.7742,4.7772,4.7803,4.7812,4.7837,4.7841,4.7883,4.7862,4.7921,4.7894,4.7914,4.7926,4.7928,4.7932,4.7906,4.7947,4.8022,4.803,4.7938,4.7937,4.7936,0,4.7566,4.7625,4.7672,4.7688,4.7727,4.7749,4.7767,4.7796,4.7819,4.7851,4.7866,4.7903,4.7923,4.7953,4.7967,4.7949,4.8025,4.8004,4.8033,4.8033,4.8048,4.8046,4.8126,4.8063,4.8063,4.8062,4.8062,0,4.7626,4.7665,4.7689,4.7717,4.7762,4.7775,4.782,4.7837,4.7863,4.7896,4.7899,4.793,4.7947,4.7981,4.7992,4.804,4.8049,4.8057,4.806,4.8056,4.8055,4.8068,4.8064,4.8065,4.8064,4.8064,4.8063,0,4.7673,4.769,4.7741,4.7775,4.7784,4.7816,4.7845,4.7873,4.7889,4.793,4.794,4.7964,4.8004,4.8021,4.8071,4.8079,4.8132,4.8133,4.8122,4.8122,4.815,4.8147,4.824,4.8253,4.8182,4.8183,4.8183,0,4.7709,4.774,4.7777,4.7799,4.7817,4.7853,4.7876,4.789,4.7915,4.7953,4.7977,4.8017,4.8049,4.8113,4.8135,4.8174,4.8174,4.8204,4.818,4.8175,4.8174,4.8171,4.8174,4.8208,4.8209,4.8209,4.821,0,4.7771,4.7779,4.7812,4.7849,4.7876,4.7906,4.7935,4.7953,4.7973,4.8,4.8041,4.8066,4.8117,4.8156,4.8196,4.8215,4.8216,4.8218,4.8226,4.8222,4.8214,4.8218,4.8133,4.8215,4.8214,4.8214,4.8214,4.8213,4.7813,4.7841,4.7872,4.7909,4.7933,4.796,4.7989,4.8008,4.8042,4.8084,4.8091,4.8134,4.8166,4.8219,4.824,4.8275,4.8267,4.828,4.8283,4.8286,4.8287,4.821,4.8282,4.8282,4.8282,4.8282,4.8282,0,4.7875,4.7895,4.793,4.797,4.8,4.7999,4.8032,4.8057,4.8095,4.8124,4.8156,4.8204,4.8243,4.8269,4.8308,4.8331,4.8333,4.8341,4.8339,4.8344,4.8292,4.828,4.834,4.834,4.834,4.8339,4.8339,4.8339,4.7911,4.7957,4.7969,4.8027,4.8048,4.809,4.8109,4.8135,4.8158,4.8211,4.8243,4.826,4.8288,4.833,4.8367,4.8373,4.8387,4.8396,4.8402,4.8353,4.8347,4.8341,4.833,4.8399,4.84,4.8451,4.8452,4.8452]},{"header":{"parameterUnit":"m.s-1","parameterCategory":1,"la1":30.2991,"la2":30.254,"lo1":-89.0895,"lo2":-89.0444,"dy":0.0017,"dx":0.0017,"nx":28,"ny":28,"refTime":"2024-09-27T21:00:00:Z","depth":0,"parameterNumber":3,"parameterNumberName":"V-component_of_WINDS"},"data":[0,0,0,0,0,0,0,0,0,0,0,0,0,0,0,0,0,0,0,0,0,0,0,0,0,0,0,0,0,0,0,0,0,0,0,0,0,0,0,0,0,0,0,0,0,0,0,0,0,0,0,0,0,0,0,0,0,0,2.6758,2.676,0,2.6891,2.6893,2.6894,2.696,2.696,2.696,2.696,2.7096,2.7099,2.7103,0,0,0,0,0,0,0,0,0,0,0,0,0,2.656,2.6564,2.6758,2.676,2.6761,2.6891,2.6893,2.6895,2.696,2.696,2.696,2.696,2.7095,2.7099,2.7103,0,0,0,0,0,0,0,0,0,0,0,0,0,2.6665,2.6565,2.6758,2.681,2.6816,2.6891,2.6893,2.6895,2.696,2.696,2.696,2.696,2.7093,2.7098,2.7104,2.7137,0,0,2.712,2.7123,0,0,0,0,0,0,0,0,2.6659,2.6672,2.68,2.6806,2.6813,2.6909,2.6873,2.6976,2.696,2.6905,2.696,2.696,2.7034,2.7044,2.7069,2.7144,2.715,2.7121,2.7124,2.7126,2.7128,0,0,0,0,0,0,0,2.6652,2.6667,2.6811,2.6802,2.681,2.6826,2.6841,2.6893,2.6968,2.691,2.6915,2.693,2.7037,2.7063,2.7073,2.7152,2.7121,2.7126,2.7129,2.7131,2.7263,2.7263,0,0,0,0,0,0,2.6636,2.666,2.6807,2.6815,2.6734,2.683,2.6846,2.6878,2.6967,2.6981,2.693,2.6932,2.7054,2.7066,2.7078,2.7124,2.7126,2.7132,2.7135,2.7262,2.7263,2.7263,0,0,0,0,0,0,2.6632,2.6649,2.6801,2.6739,2.676,2.6833,2.6868,2.6881,2.6907,2.6982,2.6996,2.6943,2.7055,2.707,2.7123,2.713,2.7134,2.7139,2.7262,2.7262,2.7263,2.7216,0,0,0,0,0,0,2.6626,2.6647,2.666,2.6739,2.6763,2.6843,2.6869,2.6883,2.6917,2.6921,2.6998,2.7011,2.7056,2.7114,2.7128,2.7137,2.7143,2.7262,2.7262,2.7263,2.7217,2.7215,2.7213,0,0,0,0,0,2.6618,2.6641,2.666,2.6677,2.6781,2.6844,2.6858,2.6909,2.6917,2.6931,2.698,2.7009,2.7126,2.7119,2.7135,2.7146,2.7262,2.7262,2.7263,2.7218,2.7215,2.7213,0,0,0,0,0,0,2.656,2.6652,2.6675,2.6723,2.6775,2.6855,2.6874,2.6903,2.6954,2.6956,2.7017,2.7034,2.7081,2.7119,2.7109,2.7184,2.7197,2.7201,2.7158,2.7156,2.7153,2.7143,2.7148,0,0,0,0,0,2.6553,2.6596,2.6675,2.671,2.6735,2.68,2.6829,2.6864,2.692,2.6943,2.6995,2.7048,2.7098,2.7129,2.7178,2.7223,2.7242,2.7239,2.7236,2.7234,2.7237,2.7265,2.7265,2.7265,2.7265,2.7265,0,0,2.6539,2.6595,2.6618,2.67,2.6744,2.6788,2.6818,2.6863,2.6896,2.6949,2.7003,2.7043,2.7106,2.7156,2.718,2.7188,2.7241,2.7235,2.7232,2.7237,2.7266,2.7265,2.7265,2.7265,2.7265,2.7265,0,0,2.6535,2.6581,2.6617,2.6661,2.6728,2.6771,2.678,2.6855,2.6884,2.6938,2.698,2.702,2.7103,2.7148,2.7181,2.7195,2.7225,2.721,2.7198,2.7224,2.7224,2.7225,2.7231,2.7232,2.7212,2.7212,2.7212,0,2.6509,2.6577,2.6631,2.6674,2.6709,2.676,2.6797,2.6837,2.6916,2.694,2.6948,2.7055,2.7101,2.7162,2.7166,2.719,2.7203,2.7201,2.722,2.7221,2.7222,2.7229,2.7231,2.721,2.721,2.721,2.721,0,2.6542,2.6588,2.6608,2.6685,2.6722,2.6761,2.6822,2.6854,2.6886,2.6928,2.6983,2.7041,2.7104,2.7121,2.7152,2.7187,2.719,2.7208,2.7222,2.7219,2.7226,2.7229,2.7207,2.7207,2.7208,2.7209,0,0,2.6505,2.6611,2.6618,2.6654,2.6732,2.6769,2.6811,2.6873,2.6899,2.6952,2.699,2.706,2.7078,2.7115,2.7152,2.7175,2.7185,2.7191,2.7194,2.7189,2.7228,2.7214,2.7216,2.7204,2.7205,2.7206,2.7223,0,2.6513,2.6591,2.6641,2.6699,2.6743,2.6793,2.683,2.6882,2.6923,2.6967,2.7012,2.7061,2.708,2.7104,2.7129,2.7178,2.7194,2.7178,2.7241,2.7242,2.7224,2.722,2.7205,2.7219,2.7226,2.7227,2.7227,0,2.6532,2.6585,2.6647,2.6722,2.6743,2.6775,2.6836,2.6877,2.6937,2.6966,2.7008,2.7046,2.7093,2.7103,2.717,2.7158,2.7187,2.7215,2.7217,2.7225,2.7234,2.7229,2.7224,2.7226,2.7232,2.7231,2.7231,0,2.65,2.6587,2.6636,2.6665,2.6753,2.6774,2.6812,2.6873,2.6907,2.6961,2.6984,2.7042,2.7074,2.7118,2.7171,2.7173,2.7232,2.7246,2.7258,2.7257,2.7268,2.7267,2.7269,2.7285,2.7285,2.7285,2.7285,0,2.6504,2.654,2.6623,2.6653,2.6695,2.6754,2.6794,2.6836,2.689,2.693,2.6976,2.7012,2.7079,2.7124,2.7165,2.7215,2.7229,2.7253,2.7264,2.725,2.7247,2.727,2.727,2.7286,2.7286,2.7286,2.7286,0,2.6475,2.6532,2.6588,2.6668,2.6689,2.6716,2.6785,2.6816,2.686,2.6909,2.6924,2.6993,2.7048,2.7106,2.718,2.7208,2.7256,2.7271,2.7236,2.7242,2.7251,2.7249,2.7268,2.7274,2.7285,2.7285,2.7285,0,2.6474,2.6504,2.6586,2.6616,2.6653,2.67,2.6736,2.6795,2.683,2.6902,2.6925,2.6984,2.7034,2.712,2.7176,2.7234,2.7251,2.7253,2.726,2.7245,2.7252,2.725,2.7254,2.7251,2.7251,2.725,2.725,0,2.6467,2.6493,2.6543,2.6603,2.6644,2.6693,2.6745,2.6767,2.6836,2.6873,2.693,2.6969,2.7046,2.7104,2.7168,2.7208,2.7241,2.7248,2.7254,2.7239,2.7218,2.7231,2.723,2.7247,2.7247,2.7247,2.7248,2.7248,2.6453,2.6481,2.6545,2.6599,2.6644,2.6691,2.6725,2.6773,2.6822,2.6889,2.6921,2.6979,2.704,2.713,2.7169,2.7215,2.7225,2.7233,2.7235,2.7236,2.7233,2.721,2.7227,2.7227,2.7228,2.7228,2.7228,0,2.6448,2.6492,2.6541,2.6612,2.6654,2.6682,2.6741,2.6774,2.6825,2.6879,2.6928,2.6994,2.7051,2.7113,2.7174,2.7199,2.7216,2.7213,2.7212,2.7221,2.7221,2.721,2.7198,2.7198,2.7198,2.7198,2.7198,2.7198,2.6451,2.6502,2.6536,2.661,2.6654,2.6711,2.6742,2.6786,2.683,2.6902,2.695,2.699,2.7048,2.7114,2.7168,2.7184,2.7205,2.7198,2.7219,2.7218,2.7221,2.7223,2.7213,2.7202,2.7202,2.7216,2.7216,2.7216]}]]